Private Wetterstation Wechselburg
Wetterdaten: Dienstag, 15.05.2018
Datum Zeit Temp. +2m Bodentemp. Temp.+5cm Temp. Wind Windchill X Diff Temp. Feuchte +2m Feuchte +5cm Luftdruck Regen Wind Richtung Richtung Sonnenschein Taupunkt Windchill Windben
15.05.2018 00:00 13,9 C 16,9 C 13,5 C 13,5 C 12,6 C 0,0 C 62 % 66 % 1015,1 hPa 0,0 l/m 1,1 km/h (1 Bft) O-NO 67 0 min 6,7 C 12,6 C 3,2 km/h (1 Bft)
15.05.2018 00:05 14,0 C 16,9 C 13,7 C 13,6 C 12,8 C 0,0 C 62 % 66 % 1015,1 hPa 0,0 l/m 2,3 km/h (1 Bft) O-NO 67 0 min 6,8 C 12,8 C 3,2 km/h (1 Bft)
15.05.2018 00:11 14,0 C 16,9 C 13,9 C 13,7 C 13,0 C 0,0 C 62 % 66 % 1015,1 hPa 0,0 l/m 3,4 km/h (1 Bft) N 0 0 min 6,8 C 13,0 C 3,9 km/h (1 Bft)
15.05.2018 00:26 13,9 C 16,8 C 13,5 C 13,5 C 12,8 C 0,0 C 62 % 66 % 1015,3 hPa 0,0 l/m 1,9 km/h (1 Bft) NO 45 0 min 6,7 C 12,8 C 2,1 km/h (1 Bft)
15.05.2018 00:27 13,9 C 16,8 C 13,5 C 13,5 C 12,8 C 0,0 C 62 % 66 % 1015,3 hPa 0,0 l/m 1,9 km/h (1 Bft) NO 45 0 min 6,7 C 12,8 C 2,1 km/h (1 Bft)
15.05.2018 00:40 13,5 C 16,9 C 13,3 C 13,2 C 12,5 C 0,0 C 63 % 67 % 1014,9 hPa 0,0 l/m 2,6 km/h (1 Bft) O-NO 67 0 min 6,6 C 12,5 C 3,4 km/h (1 Bft)
15.05.2018 00:45 13,5 C 16,9 C 13,3 C 13,2 C 12,5 C 0,0 C 63 % 67 % 1014,9 hPa 0,0 l/m 2,7 km/h (1 Bft) O-NO 67 0 min 6,6 C 12,5 C 3,2 km/h (1 Bft)
15.05.2018 00:50 13,4 C 16,9 C 13,3 C 13,1 C 12,5 C 0,0 C 64 % 67 % 1014,9 hPa 0,0 l/m 2,7 km/h (1 Bft) O-NO 67 0 min 6,7 C 12,5 C 2,7 km/h (1 Bft)
15.05.2018 00:55 13,5 C 16,9 C 13,2 C 13,1 C 12,4 C 0,0 C 64 % 68 % 1015,1 hPa 0,0 l/m 2,6 km/h (1 Bft) O-NO 67 0 min 6,8 C 12,4 C 2,3 km/h (1 Bft)
15.05.2018 01:00 13,3 C 16,9 C 13,2 C 13,0 C 12,3 C 0,0 C 64 % 68 % 1015,1 hPa 0,0 l/m 2,4 km/h (1 Bft) O-NO 67 0 min 6,6 C 12,3 C 6,8 km/h (2 Bft)
15.05.2018 01:05 13,4 C 16,8 C 13,3 C 13,1 C 12,4 C 0,0 C 64 % 67 % 1015,1 hPa 0,0 l/m 2,7 km/h (1 Bft) O-NO 67 0 min 6,7 C 12,4 C 2,4 km/h (1 Bft)
15.05.2018 01:10 13,3 C 16,8 C 13,3 C 13,0 C 12,4 C 0,0 C 64 % 67 % 1015,1 hPa 0,0 l/m 2,3 km/h (1 Bft) N-NO 22 0 min 6,6 C 12,4 C 0,0 km/h (0 Bft)
15.05.2018 01:15 13,2 C 16,8 C 13,1 C 12,9 C 12,2 C 0,0 C 64 % 68 % 1014,6 hPa 0,0 l/m 1,3 km/h (1 Bft) O-NO 67 0 min 6,5 C 12,2 C 2,9 km/h (1 Bft)
15.05.2018 01:20 13,1 C 16,8 C 12,6 C 12,6 C 11,7 C 0,0 C 64 % 69 % 1014,6 hPa 0,0 l/m 0,3 km/h (0 Bft) N-NW 337 0 min 6,4 C 11,7 C 0,0 km/h (0 Bft)
15.05.2018 01:25 12,9 C 16,8 C 12,5 C 12,4 C 11,4 C 0,0 C 65 % 69 % 1014,6 hPa 0,0 l/m 0,2 km/h (0 Bft) NW 315 0 min 6,5 C 11,4 C 0,0 km/h (0 Bft)
15.05.2018 01:30 12,6 C 16,8 C 12,3 C 12,0 C 10,9 C 0,0 C 65 % 70 % 1014,6 hPa 0,0 l/m 0,0 km/h (0 Bft) NW 315 0 min 6,2 C 10,9 C 0,0 km/h (0 Bft)
15.05.2018 01:35 12,4 C 16,8 C 12,1 C 11,8 C 10,6 C 0,0 C 65 % 70 % 1015,3 hPa 0,0 l/m 0,0 km/h (0 Bft) N 360 0 min 6,0 C 10,6 C 0,0 km/h (0 Bft)
15.05.2018 01:40 12,1 C 16,8 C 11,8 C 11,5 C 10,3 C 0,0 C 65 % 71 % 1015,3 hPa 0,0 l/m 0,0 km/h (0 Bft) W-NW 292 0 min 5,7 C 10,3 C 0,0 km/h (0 Bft)
15.05.2018 01:45 11,9 C 16,7 C 11,7 C 11,3 C 10,1 C 0,0 C 66 % 71 % 1015,3 hPa 0,0 l/m 0,0 km/h (0 Bft) N-NO 22 0 min 5,8 C 10,1 C 0,0 km/h (0 Bft)
15.05.2018 01:50 11,7 C 16,7 C 11,5 C 11,1 C 9,9 C 0,0 C 67 % 72 % 1015,3 hPa 0,0 l/m 0,0 km/h (0 Bft) N-NO 22 0 min 5,8 C 9,9 C 0,0 km/h (0 Bft)
15.05.2018 01:55 11,6 C 16,7 C 11,3 C 11,0 C 9,7 C 0,0 C 67 % 73 % 1015,1 hPa 0,0 l/m 0,0 km/h (0 Bft) N-NO 22 0 min 5,7 C 9,7 C 0,0 km/h (0 Bft)
15.05.2018 02:00 11,3 C 16,7 C 11,1 C 10,7 C 9,4 C 0,0 C 67 % 73 % 1015,1 hPa 0,0 l/m 0,0 km/h (0 Bft) N-NO 22 0 min 5,4 C 9,4 C 0,0 km/h (0 Bft)
15.05.2018 02:05 11,2 C 16,7 C 11,1 C 10,5 C 9,1 C 0,0 C 67 % 74 % 1015,1 hPa 0,0 l/m 0,0 km/h (0 Bft) NW 315 0 min 5,3 C 9,1 C 0,0 km/h (0 Bft)
15.05.2018 02:11 11,0 C 16,7 C 10,8 C 10,3 C 8,9 C 0,0 C 68 % 74 % 1015,1 hPa 0,0 l/m 0,0 km/h (0 Bft) N 0 0 min 5,3 C 8,9 C 0,0 km/h (0 Bft)
15.05.2018 02:27 10,5 C 16,6 C 10,5 C 9,9 C 8,7 C 0,0 C 71 % 75 % 1015,2 hPa 0,0 l/m 0,0 km/h (0 Bft) W 270 0 min 5,5 C 8,7 C 0,0 km/h (0 Bft)
15.05.2018 02:40 10,1 C 16,6 C 10,0 C 9,4 C 8,1 C 0,0 C 72 % 77 % 1015,3 hPa 0,0 l/m 0,0 km/h (0 Bft) N-NW 337 0 min 5,3 C 8,1 C 0,0 km/h (0 Bft)
15.05.2018 02:45 10,0 C 16,6 C 9,9 C 9,3 C 8,0 C 0,0 C 73 % 77 % 1015,3 hPa 0,0 l/m 0,0 km/h (0 Bft) N-NW 337 0 min 5,4 C 8,0 C 0,0 km/h (0 Bft)
15.05.2018 02:50 9,8 C 16,6 C 9,9 C 9,1 C 7,8 C 0,0 C 73 % 78 % 1015,3 hPa 0,0 l/m 0,0 km/h (0 Bft) N-NW 337 0 min 5,2 C 7,8 C 0,0 km/h (0 Bft)
15.05.2018 02:55 9,7 C 16,6 C 9,7 C 9,0 C 7,7 C 0,0 C 73 % 78 % 1015,3 hPa 0,0 l/m 0,0 km/h (0 Bft) NW 315 0 min 5,1 C 7,7 C 0,0 km/h (0 Bft)
15.05.2018 03:00 9,5 C 16,6 C 9,6 C 8,8 C 7,5 C 0,0 C 74 % 79 % 1015,3 hPa 0,0 l/m 0,0 km/h (0 Bft) N-NO 22 0 min 5,1 C 7,5 C 0,0 km/h (0 Bft)
15.05.2018 03:05 9,5 C 16,5 C 9,6 C 8,8 C 7,5 C 0,0 C 74 % 79 % 1015,3 hPa 0,0 l/m 0,0 km/h (0 Bft) O-NO 67 0 min 5,1 C 7,5 C 0,0 km/h (0 Bft)
15.05.2018 03:10 9,3 C 16,5 C 9,3 C 8,7 C 7,5 C 0,0 C 75 % 79 % 1015,3 hPa 0,0 l/m 0,0 km/h (0 Bft) N-NW 337 0 min 5,1 C 7,5 C 0,0 km/h (0 Bft)
15.05.2018 03:15 9,2 C 16,5 C 9,2 C 8,6 C 7,5 C 0,0 C 76 % 80 % 1014,8 hPa 0,0 l/m 0,0 km/h (0 Bft) NO 45 0 min 5,2 C 7,5 C 0,0 km/h (0 Bft)
15.05.2018 03:20 9,1 C 16,5 C 9,2 C 8,6 C 7,5 C 0,0 C 77 % 80 % 1014,8 hPa 0,0 l/m 0,0 km/h (0 Bft) N-NO 22 0 min 5,3 C 7,5 C 0,0 km/h (0 Bft)
15.05.2018 03:25 9,1 C 16,5 C 9,2 C 8,6 C 7,5 C 0,0 C 78 % 81 % 1014,8 hPa 0,0 l/m 0,0 km/h (0 Bft) O-NO 67 0 min 5,5 C 7,5 C 0,0 km/h (0 Bft)
15.05.2018 03:30 9,1 C 16,5 C 9,2 C 8,6 C 7,5 C 0,0 C 78 % 81 % 1014,8 hPa 0,0 l/m 0,0 km/h (0 Bft) W-SW 247 0 min 5,5 C 7,5 C 0,0 km/h (0 Bft)
15.05.2018 03:35 8,9 C 16,5 C 9,0 C 8,4 C 7,3 C 0,0 C 77 % 81 % 1014,5 hPa 0,0 l/m 0,0 km/h (0 Bft) NW 315 0 min 5,1 C 7,3 C 0,0 km/h (0 Bft)
15.05.2018 03:40 8,8 C 16,5 C 8,9 C 8,2 C 7,1 C 0,0 C 78 % 81 % 1014,5 hPa 0,0 l/m 0,0 km/h (0 Bft) NO 45 0 min 5,2 C 7,1 C 0,0 km/h (0 Bft)
15.05.2018 03:45 8,7 C 16,5 C 8,8 C 8,2 C 7,1 C 0,0 C 78 % 82 % 1014,5 hPa 0,0 l/m 0,0 km/h (0 Bft) O-NO 67 0 min 5,1 C 7,1 C 0,0 km/h (0 Bft)
15.05.2018 03:50 8,7 C 16,5 C 8,8 C 8,2 C 7,3 C 0,0 C 79 % 82 % 1014,5 hPa 0,0 l/m 0,0 km/h (0 Bft) NO 45 0 min 5,3 C 7,3 C 0,0 km/h (0 Bft)
15.05.2018 03:55 8,7 C 16,5 C 8,8 C 8,2 C 7,3 C 0,0 C 80 % 83 % 1015,2 hPa 0,0 l/m 0,0 km/h (0 Bft) O-NO 67 0 min 5,4 C 7,3 C 0,0 km/h (0 Bft)
15.05.2018 04:00 8,5 C 16,4 C 8,7 C 8,1 C 7,3 C 0,0 C 80 % 82 % 1015,2 hPa 0,0 l/m 0,0 km/h (0 Bft) S 180 0 min 5,3 C 7,3 C 0,0 km/h (0 Bft)
15.05.2018 04:05 8,4 C 16,4 C 8,7 C 7,9 C 7,0 C 0,0 C 80 % 83 % 1015,2 hPa 0,0 l/m 0,0 km/h (0 Bft) W-SW 247 0 min 5,2 C 7,0 C 0,0 km/h (0 Bft)
15.05.2018 04:11 8,4 C 16,4 C 8,5 C 7,8 C 6,6 C 0,0 C 80 % 83 % 1015,2 hPa 0,0 l/m 0,0 km/h (0 Bft) N 0 0 min 5,2 C 6,6 C 0,0 km/h (0 Bft)
15.05.2018 04:31 7,8 C 16,4 C 8,1 C 7,3 C 6,2 C 0,0 C 80 % 83 % 1015,2 hPa 0,0 l/m 0,0 km/h (0 Bft) NO 45 0 min 4,6 C 6,2 C 0,0 km/h (0 Bft)
15.05.2018 04:32 7,8 C 16,4 C 8,1 C 7,3 C 6,2 C 0,0 C 80 % 83 % 1015,2 hPa 0,0 l/m 0,0 km/h (0 Bft) NO 45 0 min 4,6 C 6,2 C 0,0 km/h (0 Bft)
15.05.2018 04:40 7,9 C 16,4 C 8,0 C 7,4 C 6,3 C 0,0 C 81 % 84 % 1015,0 hPa 0,0 l/m 0,0 km/h (0 Bft) N-NO 22 0 min 4,8 C 6,3 C 0,0 km/h (0 Bft)
15.05.2018 04:45 7,7 C 16,3 C 8,0 C 7,2 C 6,3 C 0,0 C 82 % 85 % 1015,0 hPa 0,0 l/m 0,0 km/h (0 Bft) NO 45 0 min 4,8 C 6,3 C 0,0 km/h (0 Bft)
15.05.2018 04:50 7,7 C 16,3 C 8,0 C 7,3 C 6,4 C 0,0 C 82 % 85 % 1015,0 hPa 0,0 l/m 0,0 km/h (0 Bft) NO 45 0 min 4,8 C 6,4 C 0,0 km/h (0 Bft)
15.05.2018 04:55 7,6 C 16,3 C 8,0 C 7,2 C 6,3 C 0,0 C 82 % 85 % 1015,4 hPa 0,0 l/m 0,0 km/h (0 Bft) W-SW 247 0 min 4,7 C 6,3 C 0,0 km/h (0 Bft)
15.05.2018 05:00 7,6 C 16,3 C 7,9 C 7,1 C 6,0 C 0,0 C 82 % 85 % 1015,4 hPa 0,0 l/m 0,0 km/h (0 Bft) W-SW 247 0 min 4,7 C 6,0 C 0,0 km/h (0 Bft)
15.05.2018 05:05 7,5 C 16,3 C 7,9 C 7,0 C 5,9 C 0,0 C 82 % 85 % 1015,4 hPa 0,0 l/m 0,0 km/h (0 Bft) N 360 0 min 4,6 C 5,9 C 0,0 km/h (0 Bft)
15.05.2018 05:10 7,4 C 16,3 C 7,6 C 6,9 C 5,9 C 0,0 C 82 % 85 % 1015,4 hPa 0,0 l/m 0,0 km/h (0 Bft) NO 45 0 min 4,5 C 5,9 C 0,0 km/h (0 Bft)
15.05.2018 05:15 7,3 C 16,3 C 7,6 C 6,8 C 5,9 C 0,0 C 82 % 86 % 1015,3 hPa 0,0 l/m 0,0 km/h (0 Bft) NO 45 0 min 4,4 C 5,9 C 0,0 km/h (0 Bft)
15.05.2018 05:20 7,3 C 16,2 C 7,6 C 6,9 C 6,0 C 0,0 C 83 % 86 % 1015,3 hPa 0,0 l/m 0,0 km/h (0 Bft) NW 315 0 min 4,6 C 6,0 C 0,0 km/h (0 Bft)
15.05.2018 05:25 7,2 C 16,2 C 7,5 C 6,8 C 6,0 C 0,0 C 83 % 86 % 1015,3 hPa 0,0 l/m 0,0 km/h (0 Bft) W-NW 292 0 min 4,5 C 6,0 C 0,0 km/h (0 Bft)
15.05.2018 05:30 7,2 C 16,2 C 7,5 C 6,7 C 5,7 C 0,0 C 83 % 86 % 1015,3 hPa 0,0 l/m 0,0 km/h (0 Bft) S 180 0 min 4,5 C 5,7 C 0,0 km/h (0 Bft)
15.05.2018 05:35 7,1 C 16,2 C 7,5 C 6,6 C 5,6 C 0,0 C 83 % 86 % 1015,6 hPa 0,0 l/m 0,0 km/h (0 Bft) SW 225 0 min 4,4 C 5,6 C 0,0 km/h (0 Bft)
15.05.2018 05:40 7,1 C 16,1 C 7,4 C 6,6 C 5,5 C 0,0 C 83 % 86 % 1015,6 hPa 0,0 l/m 0,0 km/h (0 Bft) N 360 0 min 4,4 C 5,5 C 0,0 km/h (0 Bft)
15.05.2018 05:45 6,9 C 16,1 C 7,3 C 6,5 C 5,7 C 0,0 C 83 % 86 % 1015,6 hPa 0,0 l/m 0,0 km/h (0 Bft) N-NW 337 0 min 4,2 C 5,7 C 0,0 km/h (0 Bft)
15.05.2018 05:50 6,8 C 16,1 C 7,3 C 6,4 C 5,7 C 0,0 C 83 % 86 % 1015,6 hPa 0,0 l/m 0,0 km/h (0 Bft) NW 315 0 min 4,1 C 5,7 C 0,0 km/h (0 Bft)
15.05.2018 05:55 6,8 C 16,2 C 7,4 C 6,4 C 5,7 C 0,0 C 83 % 86 % 1016,3 hPa 0,0 l/m 0,0 km/h (0 Bft) O 90 0 min 4,1 C 5,7 C 0,0 km/h (0 Bft)
15.05.2018 06:00 6,9 C 16,1 C 7,5 C 6,5 C 5,8 C 0,0 C 84 % 86 % 1016,3 hPa 0,0 l/m 0,0 km/h (0 Bft) O-NO 67 0 min 4,4 C 5,8 C 0,0 km/h (0 Bft)
15.05.2018 06:05 6,8 C 16,1 C 7,4 C 6,5 C 5,9 C 0,0 C 84 % 86 % 1016,3 hPa 0,0 l/m 0,0 km/h (0 Bft) O-SO 112 0 min 4,3 C 5,9 C 0,0 km/h (0 Bft)
15.05.2018 06:11 6,8 C 16,0 C 7,5 C 6,5 C 5,9 C 0,0 C 84 % 87 % 1016,3 hPa 0,0 l/m 0,0 km/h (0 Bft) N 0 0 min 4,3 C 5,9 C 0,0 km/h (0 Bft)
15.05.2018 06:31 6,7 C 16,0 C 7,6 C 6,6 C 6,3 C 0,0 C 85 % 87 % 1015,4 hPa 0,0 l/m 0,0 km/h (0 Bft) O-NO 67 0 min 4,4 C 6,3 C 0,0 km/h (0 Bft)
15.05.2018 06:40 6,8 C 16,0 C 7,7 C 6,8 C 6,8 C 0,0 C 85 % 87 % 1015,6 hPa 0,0 l/m 0,0 km/h (0 Bft) N-NO 22 0 min 4,5 C 6,8 C 0,0 km/h (0 Bft)
15.05.2018 06:45 6,8 C 15,9 C 7,9 C 7,0 C 7,0 C 0,2 C 85 % 87 % 1015,6 hPa 0,0 l/m 0,0 km/h (0 Bft) W 270 0 min 4,5 C 7,0 C 0,0 km/h (0 Bft)
15.05.2018 06:50 6,9 C 15,9 C 8,1 C 7,4 C 7,4 C 0,5 C 85 % 87 % 1015,6 hPa 0,0 l/m 0,0 km/h (0 Bft) SW 225 0 min 4,6 C 7,4 C 0,0 km/h (0 Bft)
15.05.2018 06:55 6,9 C 15,9 C 8,3 C 7,5 C 7,5 C 0,6 C 85 % 87 % 1015,6 hPa 0,0 l/m 0,0 km/h (0 Bft) W-SW 247 0 min 4,6 C 7,5 C 0,0 km/h (0 Bft)
15.05.2018 07:00 6,9 C 15,9 C 8,5 C 8,1 C 8,1 C 1,2 C 85 % 87 % 1015,6 hPa 0,0 l/m 0,0 km/h (0 Bft) SW 225 0 min 4,6 C 8,1 C 0,0 km/h (0 Bft)
15.05.2018 07:05 7,1 C 15,9 C 8,9 C 9,3 C 9,3 C 2,2 C 85 % 87 % 1015,6 hPa 0,0 l/m 0,0 km/h (0 Bft) W 270 0 min 4,8 C 9,3 C 0,0 km/h (0 Bft)
15.05.2018 07:10 7,1 C 15,8 C 9,2 C 11,9 C 11,9 C 4,8 C 85 % 87 % 1015,6 hPa 0,0 l/m 0,0 km/h (0 Bft) S 180 5 min 4,8 C 11,9 C 0,0 km/h (0 Bft)
15.05.2018 07:15 7,2 C 15,8 C 9,5 C 12,4 C 12,4 C 5,2 C 86 % 86 % 1016,1 hPa 0,0 l/m 0,0 km/h (0 Bft) S 180 5 min 5,0 C 12,4 C 0,0 km/h (0 Bft)
15.05.2018 07:20 7,5 C 15,8 C 9,4 C 12,5 C 12,5 C 5,0 C 86 % 86 % 1016,1 hPa 0,0 l/m 0,0 km/h (0 Bft) SW 225 5 min 5,3 C 12,5 C 0,0 km/h (0 Bft)
15.05.2018 07:25 7,6 C 15,8 C 9,6 C 12,3 C 12,3 C 4,7 C 86 % 86 % 1016,1 hPa 0,0 l/m 0,0 km/h (0 Bft) W 270 5 min 5,4 C 12,3 C 0,0 km/h (0 Bft)
15.05.2018 07:30 7,8 C 15,7 C 10,0 C 13,2 C 13,2 C 5,4 C 86 % 86 % 1016,1 hPa 0,0 l/m 0,0 km/h (0 Bft) S 180 5 min 5,6 C 13,2 C 0,0 km/h (0 Bft)
15.05.2018 07:35 8,0 C 15,7 C 10,4 C 13,8 C 13,8 C 5,8 C 86 % 86 % 1015,9 hPa 0,0 l/m 0,0 km/h (0 Bft) W 270 5 min 5,8 C 13,8 C 0,0 km/h (0 Bft)
15.05.2018 07:40 8,3 C 15,7 C 10,4 C 13,5 C 13,5 C 5,2 C 86 % 85 % 1015,9 hPa 0,0 l/m 0,0 km/h (0 Bft) W-SW 247 5 min 6,1 C 13,5 C 0,0 km/h (0 Bft)
15.05.2018 07:45 8,6 C 15,7 C 10,6 C 13,9 C 13,9 C 5,3 C 86 % 85 % 1015,9 hPa 0,0 l/m 0,0 km/h (0 Bft) O 90 5 min 6,4 C 13,9 C 0,0 km/h (0 Bft)
15.05.2018 07:50 9,0 C 15,7 C 11,0 C 14,8 C 14,8 C 5,8 C 86 % 85 % 1015,9 hPa 0,0 l/m 0,0 km/h (0 Bft) SO 135 5 min 6,8 C 14,8 C 0,0 km/h (0 Bft)
15.05.2018 07:55 9,5 C 15,7 C 11,3 C 14,6 C 14,6 C 5,1 C 86 % 84 % 1015,8 hPa 0,0 l/m 0,0 km/h (0 Bft) N-NO 22 5 min 7,3 C 14,6 C 0,0 km/h (0 Bft)
15.05.2018 08:00 10,0 C 15,6 C 11,7 C 14,6 C 14,6 C 4,6 C 85 % 84 % 1015,8 hPa 0,0 l/m 0,0 km/h (0 Bft) W-SW 247 5 min 7,6 C 14,6 C 0,0 km/h (0 Bft)
15.05.2018 08:05 10,5 C 15,6 C 12,0 C 15,9 C 15,9 C 5,4 C 85 % 83 % 1015,8 hPa 0,0 l/m 0,0 km/h (0 Bft) S-SO 157 5 min 8,1 C 15,9 C 0,0 km/h (0 Bft)
15.05.2018 08:11 11,3 C 15,5 C 12,3 C 18,4 C 18,4 C 7,1 C 85 % 82 % 1015,8 hPa 0,0 l/m 0,2 km/h (0 Bft) N 0 6 min 8,9 C 18,4 C 0,0 km/h (0 Bft)
15.05.2018 08:31 12,7 C 15,5 C 13,2 C 17,0 C 17,0 C 4,3 C 79 % 80 % 1015,8 hPa 0,0 l/m 1,0 km/h (0 Bft) NW 315 20 min 9,2 C 17,0 C 4,5 km/h (1 Bft)
15.05.2018 08:40 12,8 C 15,5 C 13,3 C 15,6 C 15,6 C 2,8 C 78 % 79 % 1015,8 hPa 0,0 l/m 0,8 km/h (0 Bft) SO 135 0 min 9,1 C 15,6 C 1,8 km/h (1 Bft)
15.05.2018 08:45 12,8 C 15,5 C 13,4 C 15,4 C 15,4 C 2,6 C 78 % 79 % 1015,8 hPa 0,0 l/m 0,6 km/h (0 Bft) N-NW 337 0 min 9,1 C 15,4 C 1,6 km/h (1 Bft)
15.05.2018 08:50 13,1 C 15,5 C 13,7 C 15,6 C 15,6 C 2,5 C 78 % 78 % 1015,8 hPa 0,0 l/m 0,8 km/h (0 Bft) NW 315 0 min 9,4 C 15,6 C 1,8 km/h (1 Bft)
15.05.2018 08:55 13,3 C 15,5 C 13,9 C 15,8 C 15,8 C 2,5 C 78 % 79 % 1015,9 hPa 0,0 l/m 0,8 km/h (0 Bft) NW 315 0 min 9,5 C 15,8 C 1,9 km/h (1 Bft)
15.05.2018 09:00 13,5 C 15,5 C 14,1 C 15,9 C 15,9 C 2,4 C 77 % 78 % 1015,9 hPa 0,0 l/m 0,5 km/h (0 Bft) NO 45 0 min 9,5 C 15,9 C 0,0 km/h (0 Bft)
15.05.2018 09:05 13,6 C 15,5 C 14,3 C 16,3 C 16,3 C 2,7 C 77 % 77 % 1015,9 hPa 0,0 l/m 0,2 km/h (0 Bft) N 360 0 min 9,6 C 16,3 C 0,0 km/h (0 Bft)
15.05.2018 09:10 14,3 C 15,5 C 14,4 C 18,4 C 18,4 C 4,1 C 77 % 76 % 1015,9 hPa 0,0 l/m 0,3 km/h (0 Bft) NO 45 5 min 10,3 C 18,4 C 2,4 km/h (1 Bft)
15.05.2018 09:15 14,5 C 15,5 C 14,5 C 18,4 C 18,4 C 3,9 C 75 % 76 % 1015,7 hPa 0,0 l/m 0,8 km/h (0 Bft) W 270 5 min 10,1 C 18,4 C 3,9 km/h (1 Bft)
15.05.2018 09:20 14,5 C 15,5 C 14,8 C 18,0 C 18,0 C 3,5 C 74 % 75 % 1015,7 hPa 0,0 l/m 1,6 km/h (1 Bft) N-NW 337 5 min 9,9 C 18,0 C 2,9 km/h (1 Bft)
15.05.2018 09:25 14,5 C 15,5 C 15,1 C 18,1 C 18,1 C 3,6 C 73 % 75 % 1015,7 hPa 0,0 l/m 2,3 km/h (1 Bft) NW 315 5 min 9,7 C 18,1 C 2,6 km/h (1 Bft)
15.05.2018 09:30 14,8 C 15,5 C 15,1 C 19,2 C 19,2 C 4,4 C 73 % 74 % 1015,7 hPa 0,0 l/m 2,3 km/h (1 Bft) W-NW 292 5 min 10,0 C 19,2 C 4,7 km/h (1 Bft)
15.05.2018 09:35 15,1 C 15,5 C 15,1 C 20,2 C 20,2 C 5,1 C 72 % 74 % 1015,5 hPa 0,0 l/m 1,3 km/h (1 Bft) N-NO 22 5 min 10,1 C 20,2 C 0,0 km/h (0 Bft)
15.05.2018 09:40 15,5 C 15,5 C 15,2 C 19,5 C 19,5 C 4,0 C 71 % 74 % 1015,5 hPa 0,0 l/m 1,8 km/h (1 Bft) NW 315 5 min 10,3 C 19,5 C 5,6 km/h (1 Bft)
15.05.2018 09:45 15,5 C 15,5 C 15,5 C 19,3 C 19,3 C 3,8 C 70 % 74 % 1015,5 hPa 0,0 l/m 1,8 km/h (1 Bft) NW 315 5 min 10,1 C 19,3 C 5,0 km/h (1 Bft)
15.05.2018 09:50 15,9 C 15,4 C 15,9 C 19,5 C 19,5 C 3,6 C 69 % 72 % 1015,5 hPa 0,0 l/m 1,8 km/h (1 Bft) NW 315 5 min 10,2 C 19,5 C 3,9 km/h (1 Bft)
15.05.2018 09:55 16,0 C 15,4 C 16,2 C 20,0 C 20,0 C 4,0 C 69 % 71 % 1015,6 hPa 0,0 l/m 1,9 km/h (1 Bft) W-SW 247 5 min 10,3 C 20,0 C 2,3 km/h (1 Bft)
15.05.2018 10:00 16,4 C 15,4 C 16,5 C 20,6 C 20,6 C 4,2 C 68 % 70 % 1015,6 hPa 0,0 l/m 2,1 km/h (1 Bft) NW 315 5 min 10,5 C 20,6 C 4,3 km/h (1 Bft)
15.05.2018 10:05 16,5 C 15,4 C 16,7 C 20,5 C 20,5 C 4,0 C 67 % 70 % 1015,6 hPa 0,0 l/m 2,1 km/h (1 Bft) NW 315 5 min 10,4 C 20,5 C 4,2 km/h (1 Bft)
15.05.2018 10:11 16,6 C 15,4 C 17,1 C 20,3 C 20,3 C 3,7 C 67 % 69 % 1015,6 hPa 0,0 l/m 2,1 km/h (1 Bft) N 0 6 min 10,4 C 20,3 C 1,8 km/h (1 Bft)
15.05.2018 10:26 17,0 C 15,4 C 17,3 C 21,6 C 21,6 C 4,6 C 64 % 65 % 1015,7 hPa 0,0 l/m 2,1 km/h (1 Bft) NO 45 15 min 10,1 C 21,6 C 0,0 km/h (0 Bft)
15.05.2018 10:40 17,3 C 15,4 C 17,0 C 23,1 C 23,1 C 5,8 C 61 % 63 % 1015,8 hPa 0,0 l/m 2,1 km/h (1 Bft) N-NO 22 14 min 9,7 C 23,1 C 2,6 km/h (1 Bft)
15.05.2018 10:45 17,3 C 15,4 C 17,1 C 22,5 C 22,5 C 5,2 C 61 % 62 % 1015,8 hPa 0,0 l/m 1,9 km/h (1 Bft) W-SW 247 5 min 9,7 C 22,5 C 2,1 km/h (1 Bft)
15.05.2018 10:50 17,5 C 15,4 C 17,5 C 23,8 C 23,8 C 6,3 C 61 % 62 % 1015,8 hPa 0,0 l/m 2,4 km/h (1 Bft) W 270 5 min 9,9 C 23,8 C 2,1 km/h (1 Bft)
15.05.2018 10:55 17,6 C 15,4 C 17,7 C 24,0 C 24,0 C 6,4 C 59 % 61 % 1015,4 hPa 0,0 l/m 3,5 km/h (1 Bft) O-NO 67 5 min 9,5 C 24,0 C 13,0 km/h (3 Bft)
15.05.2018 11:00 17,4 C 15,4 C 18,0 C 22,2 C 22,2 C 4,8 C 59 % 60 % 1015,4 hPa 0,0 l/m 5,1 km/h (1 Bft) O-NO 67 5 min 9,3 C 22,2 C 4,7 km/h (1 Bft)
15.05.2018 11:05 17,5 C 15,4 C 18,0 C 21,5 C 21,5 C 4,0 C 59 % 60 % 1015,4 hPa 0,0 l/m 5,1 km/h (1 Bft) O-NO 67 5 min 9,4 C 21,5 C 13,0 km/h (3 Bft)
15.05.2018 11:10 17,5 C 15,4 C 18,0 C 20,8 C 20,8 C 3,3 C 59 % 60 % 1015,4 hPa 0,0 l/m 4,7 km/h (1 Bft) O 90 5 min 9,4 C 20,8 C 7,6 km/h (2 Bft)
15.05.2018 11:15 17,4 C 15,4 C 18,0 C 20,5 C 20,5 C 3,1 C 59 % 60 % 1015,6 hPa 0,0 l/m 5,3 km/h (1 Bft) O-NO 67 0 min 9,3 C 20,5 C 6,1 km/h (2 Bft)
15.05.2018 11:20 17,6 C 15,4 C 18,5 C 21,0 C 21,0 C 3,4 C 60 % 61 % 1015,6 hPa 0,0 l/m 3,5 km/h (1 Bft) W 270 5 min 9,7 C 21,0 C 3,5 km/h (1 Bft)
15.05.2018 11:25 17,9 C 15,3 C 18,7 C 21,3 C 21,3 C 3,4 C 60 % 61 % 1015,6 hPa 0,0 l/m 2,4 km/h (1 Bft) O-NO 67 5 min 10,0 C 21,3 C 2,6 km/h (1 Bft)
15.05.2018 11:30 18,0 C 15,3 C 18,4 C 21,1 C 21,1 C 3,1 C 60 % 60 % 1015,6 hPa 0,0 l/m 1,9 km/h (1 Bft) SO 135 0 min 10,1 C 21,1 C 2,4 km/h (1 Bft)
15.05.2018 11:35 18,1 C 15,3 C 18,3 C 20,8 C 20,8 C 2,7 C 59 % 61 % 1015,8 hPa 0,0 l/m 1,3 km/h (1 Bft) O 90 0 min 10,0 C 20,8 C 2,7 km/h (1 Bft)
15.05.2018 11:40 17,9 C 15,3 C 18,4 C 20,6 C 20,6 C 2,7 C 59 % 60 % 1015,8 hPa 0,0 l/m 2,1 km/h (1 Bft) NO 45 0 min 9,8 C 20,6 C 2,1 km/h (1 Bft)
15.05.2018 11:45 18,1 C 15,4 C 18,7 C 20,8 C 20,8 C 2,7 C 59 % 61 % 1015,8 hPa 0,0 l/m 2,9 km/h (1 Bft) O-NO 67 0 min 10,0 C 20,8 C 9,0 km/h (2 Bft)
15.05.2018 11:50 18,3 C 15,4 C 18,8 C 20,5 C 20,5 C 2,2 C 59 % 60 % 1015,8 hPa 0,0 l/m 4,2 km/h (1 Bft) W-NW 292 0 min 10,1 C 20,5 C 6,0 km/h (2 Bft)
15.05.2018 11:55 18,2 C 15,4 C 18,9 C 20,5 C 20,5 C 2,3 C 59 % 60 % 1015,3 hPa 0,0 l/m 4,3 km/h (1 Bft) O 90 0 min 10,1 C 20,5 C 2,9 km/h (1 Bft)
15.05.2018 12:00 18,5 C 15,4 C 19,7 C 22,5 C 22,5 C 4,0 C 59 % 59 % 1015,3 hPa 0,0 l/m 2,6 km/h (1 Bft) W-SW 247 5 min 10,3 C 22,5 C 1,6 km/h (1 Bft)
15.05.2018 12:05 18,7 C 15,4 C 19,7 C 23,9 C 23,9 C 5,2 C 59 % 59 % 1015,3 hPa 0,0 l/m 2,4 km/h (1 Bft) N-NW 337 5 min 10,5 C 23,9 C 1,9 km/h (1 Bft)
15.05.2018 12:11 19,1 C 15,4 C 20,0 C 25,3 C 25,3 C 6,2 C 58 % 58 % 1015,3 hPa 0,0 l/m 3,1 km/h (1 Bft) N 0 6 min 10,6 C 25,3 C 5,3 km/h (1 Bft)
15.05.2018 12:26 19,1 C 15,4 C 19,8 C 23,7 C 23,7 C 4,6 C 56 % 56 % 1015,0 hPa 0,0 l/m 3,2 km/h (1 Bft) O-NO 67 15 min 10,1 C 23,7 C 2,7 km/h (1 Bft)
15.05.2018 12:40 18,5 C 15,4 C 19,5 C 21,0 C 21,0 C 2,5 C 57 % 57 % 1014,8 hPa 0,0 l/m 5,0 km/h (1 Bft) O-NO 67 0 min 9,8 C 21,0 C 6,1 km/h (2 Bft)
15.05.2018 12:45 18,6 C 15,4 C 19,6 C 21,0 C 21,0 C 2,4 C 57 % 58 % 1014,8 hPa 0,0 l/m 4,3 km/h (1 Bft) O-NO 67 0 min 9,9 C 21,0 C 3,9 km/h (1 Bft)
15.05.2018 12:50 18,8 C 15,4 C 19,9 C 21,7 C 21,7 C 2,9 C 58 % 57 % 1014,8 hPa 0,0 l/m 3,4 km/h (1 Bft) O-NO 67 0 min 10,4 C 21,7 C 3,5 km/h (1 Bft)
15.05.2018 12:55 18,9 C 15,4 C 19,7 C 22,0 C 22,0 C 3,1 C 57 % 56 % 1014,9 hPa 0,0 l/m 3,1 km/h (1 Bft) N-NO 22 0 min 10,2 C 22,0 C 3,1 km/h (1 Bft)
15.05.2018 13:00 18,9 C 15,4 C 19,4 C 21,5 C 21,5 C 2,6 C 57 % 57 % 1014,9 hPa 0,0 l/m 2,7 km/h (1 Bft) N-NO 22 0 min 10,2 C 21,5 C 2,4 km/h (1 Bft)
15.05.2018 13:05 18,8 C 15,5 C 19,3 C 21,1 C 21,1 C 2,3 C 56 % 58 % 1014,9 hPa 0,0 l/m 2,7 km/h (1 Bft) N 360 0 min 9,8 C 21,1 C 3,7 km/h (1 Bft)
15.05.2018 13:10 18,7 C 15,5 C 19,3 C 20,8 C 20,8 C 2,1 C 57 % 58 % 1014,9 hPa 0,0 l/m 2,6 km/h (1 Bft) NO 45 0 min 10,0 C 20,8 C 4,2 km/h (1 Bft)
15.05.2018 13:15 18,7 C 15,5 C 19,3 C 20,6 C 20,6 C 1,9 C 57 % 58 % 1014,8 hPa 0,0 l/m 2,4 km/h (1 Bft) NO 45 0 min 10,0 C 20,6 C 2,6 km/h (1 Bft)
15.05.2018 13:20 18,6 C 15,5 C 19,5 C 20,8 C 20,8 C 2,2 C 56 % 56 % 1014,8 hPa 0,0 l/m 2,4 km/h (1 Bft) O-SO 112 0 min 9,6 C 20,8 C 2,1 km/h (1 Bft)
15.05.2018 13:25 18,7 C 15,5 C 19,4 C 21,1 C 21,1 C 2,4 C 56 % 55 % 1014,8 hPa 0,0 l/m 2,4 km/h (1 Bft) O-NO 67 0 min 9,7 C 21,1 C 3,5 km/h (1 Bft)
15.05.2018 13:30 18,8 C 15,5 C 19,7 C 21,3 C 21,3 C 2,5 C 56 % 56 % 1014,8 hPa 0,0 l/m 2,4 km/h (1 Bft) O-NO 67 0 min 9,8 C 21,3 C 5,0 km/h (1 Bft)
15.05.2018 13:35 18,9 C 15,5 C 19,9 C 22,0 C 22,0 C 3,1 C 56 % 55 % 1014,4 hPa 0,0 l/m 2,3 km/h (1 Bft) O-NO 67 0 min 9,9 C 22,0 C 4,2 km/h (1 Bft)
15.05.2018 13:40 19,5 C 15,5 C 20,9 C 23,8 C 23,8 C 4,3 C 55 % 54 % 1014,4 hPa 0,0 l/m 2,6 km/h (1 Bft) W-NW 292 5 min 10,2 C 23,8 C 3,7 km/h (1 Bft)
15.05.2018 13:45 19,5 C 15,5 C 20,7 C 24,0 C 24,0 C 4,5 C 54 % 52 % 1014,4 hPa 0,0 l/m 3,2 km/h (1 Bft) O-NO 67 5 min 9,9 C 24,0 C 5,1 km/h (1 Bft)
15.05.2018 13:50 19,4 C 15,5 C 20,3 C 23,4 C 23,4 C 4,0 C 53 % 53 % 1014,4 hPa 0,0 l/m 3,9 km/h (1 Bft) NW 315 5 min 9,6 C 23,4 C 3,2 km/h (1 Bft)
15.05.2018 13:55 19,5 C 15,5 C 20,4 C 23,3 C 23,3 C 3,8 C 53 % 53 % 1014,2 hPa 0,0 l/m 3,5 km/h (1 Bft) N-NW 337 5 min 9,7 C 23,3 C 5,1 km/h (1 Bft)
15.05.2018 14:00 19,7 C 15,5 C 20,4 C 23,1 C 23,1 C 3,4 C 53 % 53 % 1014,2 hPa 0,0 l/m 2,6 km/h (1 Bft) N-NO 22 5 min 9,8 C 23,1 C 3,5 km/h (1 Bft)
15.05.2018 14:05 19,6 C 15,5 C 20,4 C 22,8 C 22,8 C 3,2 C 53 % 53 % 1014,2 hPa 0,0 l/m 2,3 km/h (1 Bft) N 360 0 min 9,8 C 22,8 C 3,2 km/h (1 Bft)
15.05.2018 14:11 19,5 C 15,5 C 20,3 C 22,5 C 22,5 C 3,0 C 53 % 53 % 1014,2 hPa 0,0 l/m 1,8 km/h (1 Bft) N 0 0 min 9,7 C 22,5 C 0,0 km/h (0 Bft)
15.05.2018 14:26 19,3 C 15,6 C 20,2 C 22,2 C 22,2 C 2,9 C 54 % 54 % 1014,2 hPa 0,0 l/m 2,4 km/h (1 Bft) O-NO 67 0 min 9,8 C 22,2 C 2,9 km/h (1 Bft)
15.05.2018 14:40 19,5 C 15,6 C 20,5 C 22,9 C 22,9 C 3,4 C 53 % 53 % 1014,0 hPa 0,0 l/m 2,3 km/h (1 Bft) NW 315 14 min 9,7 C 22,9 C 5,6 km/h (1 Bft)
15.05.2018 14:45 19,5 C 15,6 C 20,6 C 22,8 C 22,8 C 3,3 C 52 % 53 % 1014,0 hPa 0,0 l/m 2,9 km/h (1 Bft) N-NW 337 5 min 9,4 C 22,8 C 4,2 km/h (1 Bft)
15.05.2018 14:50 19,7 C 15,6 C 21,1 C 23,7 C 23,7 C 4,0 C 53 % 53 % 1014,0 hPa 0,0 l/m 3,5 km/h (1 Bft) W 270 5 min 9,8 C 23,7 C 6,1 km/h (2 Bft)
15.05.2018 14:55 20,1 C 15,6 C 21,6 C 25,9 C 25,9 C 5,8 C 53 % 52 % 1013,8 hPa 0,0 l/m 3,1 km/h (1 Bft) W-SW 247 5 min 10,2 C 25,9 C 3,5 km/h (1 Bft)
15.05.2018 15:00 20,8 C 15,6 C 22,0 C 27,5 C 27,5 C 6,7 C 52 % 51 % 1013,8 hPa 0,0 l/m 2,7 km/h (1 Bft) O-SO 112 5 min 10,6 C 27,5 C 2,1 km/h (1 Bft)
15.05.2018 15:05 20,8 C 15,6 C 21,5 C 26,8 C 26,8 C 6,0 C 50 % 49 % 1013,8 hPa 0,0 l/m 2,9 km/h (1 Bft) O-NO 67 5 min 10,0 C 26,8 C 4,8 km/h (1 Bft)
15.05.2018 15:10 20,1 C 15,6 C 20,8 C 24,6 C 24,6 C 4,5 C 51 % 51 % 1013,8 hPa 0,0 l/m 2,3 km/h (1 Bft) N-NO 22 5 min 9,6 C 24,6 C 2,3 km/h (1 Bft)
15.05.2018 15:15 20,1 C 15,6 C 20,7 C 23,7 C 23,7 C 3,6 C 51 % 53 % 1013,9 hPa 0,0 l/m 2,4 km/h (1 Bft) N-NO 22 5 min 9,6 C 23,7 C 5,5 km/h (1 Bft)
15.05.2018 15:20 20,0 C 15,6 C 20,7 C 23,1 C 23,1 C 3,1 C 52 % 54 % 1013,9 hPa 0,0 l/m 2,1 km/h (1 Bft) O-NO 67 0 min 9,8 C 23,1 C 4,5 km/h (1 Bft)
15.05.2018 15:25 19,9 C 15,7 C 20,6 C 22,5 C 22,5 C 2,6 C 55 % 56 % 1013,9 hPa 0,0 l/m 2,9 km/h (1 Bft) O-SO 112 0 min 10,6 C 22,5 C 3,5 km/h (1 Bft)
15.05.2018 15:30 19,4 C 15,7 C 20,0 C 21,8 C 21,8 C 2,4 C 54 % 56 % 1013,9 hPa 0,0 l/m 4,2 km/h (1 Bft) N-NO 22 0 min 9,8 C 21,8 C 3,1 km/h (1 Bft)
15.05.2018 15:35 19,1 C 15,7 C 19,7 C 21,3 C 21,3 C 2,2 C 55 % 56 % 1013,9 hPa 0,0 l/m 4,3 km/h (1 Bft) O-NO 67 0 min 9,8 C 21,3 C 8,9 km/h (2 Bft)
15.05.2018 15:40 18,4 C 15,7 C 19,2 C 20,0 C 20,0 C 1,6 C 59 % 61 % 1013,9 hPa 0,0 l/m 4,5 km/h (1 Bft) O-NO 67 0 min 10,2 C 20,0 C 6,1 km/h (2 Bft)
15.05.2018 15:45 17,9 C 15,7 C 18,4 C 18,9 C 18,9 C 1,0 C 61 % 64 % 1013,9 hPa 0,0 l/m 5,1 km/h (1 Bft) O-SO 112 0 min 10,3 C 18,9 C 0,0 km/h (0 Bft)
15.05.2018 15:50 17,6 C 15,7 C 17,9 C 17,6 C 17,6 C 0,0 C 63 % 66 % 1013,9 hPa 0,0 l/m 3,1 km/h (1 Bft) W-NW 292 0 min 10,5 C 17,6 C 0,0 km/h (0 Bft)
15.05.2018 15:55 17,5 C 15,7 C 17,6 C 17,1 C 16,3 C 0,0 C 65 % 69 % 1014,2 hPa 0,0 l/m 1,1 km/h (1 Bft) NO 45 0 min 10,8 C 16,3 C 4,7 km/h (1 Bft)
15.05.2018 16:00 16,9 C 15,9 C 17,2 C 16,2 C 14,9 C 0,0 C 70 % 74 % 1014,2 hPa 0,0 l/m 3,7 km/h (1 Bft) NO 45 0 min 11,4 C 14,9 C 5,3 km/h (1 Bft)
15.05.2018 16:05 16,5 C 15,9 C 17,0 C 16,0 C 14,9 C 0,0 C 72 % 75 % 1014,2 hPa 0,0 l/m 4,7 km/h (1 Bft) O-NO 67 0 min 11,4 C 14,9 C 6,1 km/h (2 Bft)
15.05.2018 16:11 16,2 C 15,9 C 17,1 C 16,1 C 15,8 C 0,0 C 73 % 77 % 1014,2 hPa 0,0 l/m 4,0 km/h (1 Bft) N 0 0 min 11,4 C 15,8 C 0,0 km/h (0 Bft)
15.05.2018 16:26 16,3 C 15,7 C 16,7 C 17,0 C 17,0 C 0,7 C 73 % 79 % 1014,4 hPa 0,0 l/m 0,5 km/h (0 Bft) S-SW 202 0 min 11,4 C 17,0 C 0,0 km/h (0 Bft)
15.05.2018 16:40 16,0 C 15,9 C 15,8 C 15,7 C 15,1 C 0,0 C 74 % 81 % 1014,2 hPa 0,0 l/m 0,0 km/h (0 Bft) N 360 0 min 11,4 C 15,1 C 0,0 km/h (0 Bft)
15.05.2018 16:45 15,9 C 15,9 C 15,6 C 15,5 C 14,8 C 0,0 C 73 % 81 % 1014,2 hPa 0,0 l/m 0,3 km/h (0 Bft) NO 45 0 min 11,1 C 14,8 C 3,2 km/h (1 Bft)
15.05.2018 16:50 15,9 C 16,0 C 15,7 C 15,5 C 14,6 C 0,0 C 74 % 81 % 1014,2 hPa 0,0 l/m 0,5 km/h (0 Bft) N-NW 337 0 min 11,3 C 14,6 C 0,0 km/h (0 Bft)
15.05.2018 16:55 15,9 C 16,1 C 15,6 C 15,5 C 14,8 C 0,0 C 75 % 82 % 1013,9 hPa 0,0 l/m 0,2 km/h (0 Bft) NW 315 0 min 11,5 C 14,8 C 0,0 km/h (0 Bft)
15.05.2018 17:00 16,1 C 16,0 C 15,9 C 15,9 C 15,6 C 0,0 C 77 % 83 % 1013,9 hPa 0,0 l/m 0,0 km/h (0 Bft) S 180 0 min 12,1 C 15,6 C 0,0 km/h (0 Bft)
15.05.2018 17:05 16,1 C 16,1 C 15,9 C 15,9 C 15,6 C 0,0 C 77 % 83 % 1013,9 hPa 0,7 l/m 0,0 km/h (0 Bft) O-NO 67 0 min 12,1 C 15,6 C 0,0 km/h (0 Bft)
15.05.2018 17:10 16,3 C 15,9 C 16,1 C 16,7 C 16,7 C 0,4 C 77 % 83 % 1013,9 hPa 0,0 l/m 0,0 km/h (0 Bft) S-SO 157 0 min 12,3 C 16,7 C 0,0 km/h (0 Bft)
15.05.2018 17:15 16,4 C 15,9 C 16,6 C 18,6 C 18,6 C 2,2 C 77 % 84 % 1013,6 hPa 0,0 l/m 0,0 km/h (0 Bft) S-SW 202 0 min 12,4 C 18,6 C 1,6 km/h (1 Bft)
15.05.2018 17:20 16,7 C 15,9 C 16,8 C 21,2 C 21,2 C 4,5 C 77 % 82 % 1013,6 hPa 0,0 l/m 0,3 km/h (0 Bft) NW 315 5 min 12,6 C 21,2 C 0,0 km/h (0 Bft)
15.05.2018 17:25 16,7 C 15,9 C 16,8 C 21,4 C 21,4 C 4,7 C 76 % 80 % 1013,6 hPa 0,0 l/m 0,6 km/h (0 Bft) W-NW 292 5 min 12,4 C 21,4 C 4,3 km/h (1 Bft)
15.05.2018 17:30 16,6 C 15,9 C 16,7 C 21,4 C 21,4 C 4,8 C 74 % 79 % 1013,6 hPa 0,0 l/m 1,3 km/h (1 Bft) N-NW 337 5 min 11,9 C 21,4 C 2,3 km/h (1 Bft)
15.05.2018 17:35 16,7 C 15,9 C 16,8 C 21,9 C 21,9 C 5,2 C 74 % 80 % 1013,2 hPa 0,0 l/m 1,4 km/h (1 Bft) S 180 5 min 12,0 C 21,9 C 0,0 km/h (0 Bft)
15.05.2018 17:40 16,9 C 15,9 C 17,3 C 23,3 C 23,3 C 6,4 C 74 % 79 % 1013,2 hPa 0,0 l/m 0,8 km/h (0 Bft) S-SO 157 5 min 12,2 C 23,3 C 1,6 km/h (1 Bft)
15.05.2018 17:45 17,1 C 15,9 C 17,5 C 24,0 C 24,0 C 6,9 C 73 % 76 % 1013,2 hPa 0,0 l/m 1,3 km/h (1 Bft) W-NW 292 5 min 12,2 C 24,0 C 6,4 km/h (2 Bft)
15.05.2018 17:50 17,3 C 15,9 C 17,4 C 23,9 C 23,9 C 6,6 C 71 % 75 % 1013,2 hPa 0,0 l/m 2,9 km/h (1 Bft) S 180 5 min 12,0 C 23,9 C 3,5 km/h (1 Bft)
15.05.2018 17:55 17,3 C 15,9 C 17,5 C 24,0 C 24,0 C 6,7 C 71 % 76 % 1013,2 hPa 0,0 l/m 2,9 km/h (1 Bft) N-NO 22 5 min 12,0 C 24,0 C 2,1 km/h (1 Bft)
15.05.2018 18:00 17,4 C 15,9 C 17,7 C 24,1 C 24,1 C 6,7 C 69 % 74 % 1013,2 hPa 0,0 l/m 2,4 km/h (1 Bft) W-SW 247 5 min 11,7 C 24,1 C 2,4 km/h (1 Bft)
15.05.2018 18:05 17,5 C 15,9 C 17,7 C 23,8 C 23,8 C 6,3 C 69 % 72 % 1013,2 hPa 0,0 l/m 2,9 km/h (1 Bft) NW 315 5 min 11,7 C 23,8 C 3,9 km/h (1 Bft)
15.05.2018 18:11 17,5 C 15,9 C 17,7 C 23,3 C 23,3 C 5,8 C 68 % 72 % 1013,2 hPa 0,0 l/m 3,2 km/h (1 Bft) N 0 6 min 11,5 C 23,3 C 3,1 km/h (1 Bft)
15.05.2018 18:26 17,5 C 15,9 C 17,9 C 22,6 C 22,6 C 5,1 C 68 % 72 % 1013,0 hPa 0,0 l/m 2,4 km/h (1 Bft) N-NO 22 15 min 11,5 C 22,6 C 3,9 km/h (1 Bft)
15.05.2018 18:40 17,2 C 16,0 C 17,4 C 20,3 C 20,3 C 3,1 C 69 % 73 % 1013,1 hPa 0,0 l/m 1,9 km/h (1 Bft) NW 315 0 min 11,5 C 20,3 C 3,1 km/h (1 Bft)
15.05.2018 18:45 17,2 C 16,0 C 17,3 C 19,8 C 19,8 C 2,6 C 69 % 74 % 1013,1 hPa 0,0 l/m 2,1 km/h (1 Bft) NO 45 0 min 11,5 C 19,8 C 2,7 km/h (1 Bft)
15.05.2018 18:50 17,1 C 16,0 C 17,2 C 18,9 C 18,9 C 1,8 C 69 % 73 % 1013,1 hPa 0,0 l/m 2,4 km/h (1 Bft) O-NO 67 0 min 11,4 C 18,9 C 0,0 km/h (0 Bft)
15.05.2018 18:55 17,1 C 16,0 C 17,1 C 18,5 C 18,5 C 1,4 C 69 % 73 % 1013,1 hPa 0,0 l/m 2,1 km/h (1 Bft) S 180 0 min 11,4 C 18,5 C 0,0 km/h (0 Bft)
15.05.2018 19:00 17,1 C 16,0 C 16,9 C 18,0 C 18,0 C 0,9 C 70 % 73 % 1013,1 hPa 0,0 l/m 1,6 km/h (1 Bft) N 360 0 min 11,6 C 18,0 C 3,7 km/h (1 Bft)
15.05.2018 19:05 16,8 C 16,0 C 16,9 C 17,8 C 17,8 C 1,0 C 70 % 74 % 1013,1 hPa 0,0 l/m 1,9 km/h (1 Bft) NW 315 0 min 11,3 C 17,8 C 3,9 km/h (1 Bft)
15.05.2018 19:10 16,7 C 16,0 C 16,7 C 17,3 C 17,3 C 0,6 C 71 % 75 % 1013,1 hPa 0,0 l/m 2,1 km/h (1 Bft) NW 315 0 min 11,4 C 17,3 C 5,5 km/h (1 Bft)
15.05.2018 19:15 16,7 C 16,0 C 16,5 C 17,1 C 17,1 C 0,4 C 71 % 75 % 1012,9 hPa 0,0 l/m 2,1 km/h (1 Bft) NW 315 0 min 11,4 C 17,1 C 6,4 km/h (2 Bft)
15.05.2018 19:20 16,5 C 16,0 C 16,4 C 16,8 C 16,8 C 0,3 C 71 % 76 % 1012,9 hPa 0,0 l/m 1,4 km/h (1 Bft) O-SO 112 0 min 11,2 C 16,8 C 0,0 km/h (0 Bft)
15.05.2018 19:25 16,4 C 16,0 C 16,4 C 16,7 C 16,7 C 0,3 C 72 % 76 % 1012,9 hPa 0,0 l/m 1,0 km/h (0 Bft) O-NO 67 0 min 11,3 C 16,7 C 0,0 km/h (0 Bft)
15.05.2018 19:30 16,4 C 16,0 C 16,3 C 16,6 C 16,6 C 0,2 C 73 % 77 % 1012,9 hPa 0,0 l/m 0,5 km/h (0 Bft) O-NO 67 0 min 11,5 C 16,6 C 0,0 km/h (0 Bft)
15.05.2018 19:35 16,3 C 16,0 C 16,1 C 16,4 C 16,4 C 0,1 C 73 % 77 % 1012,8 hPa 0,0 l/m 0,5 km/h (0 Bft) O-NO 67 0 min 11,4 C 16,4 C 0,0 km/h (0 Bft)
15.05.2018 19:40 16,2 C 16,0 C 16,1 C 16,2 C 16,1 C 0,0 C 74 % 78 % 1012,8 hPa 0,0 l/m 0,6 km/h (0 Bft) W 270 0 min 11,6 C 16,1 C 3,5 km/h (1 Bft)
15.05.2018 19:45 16,1 C 16,0 C 15,9 C 16,0 C 15,9 C 0,0 C 74 % 78 % 1012,8 hPa 0,0 l/m 1,6 km/h (1 Bft) W-NW 292 0 min 11,5 C 15,9 C 9,8 km/h (2 Bft)
15.05.2018 19:50 16,0 C 16,0 C 15,8 C 15,9 C 15,7 C 0,0 C 74 % 78 % 1012,8 hPa 0,0 l/m 2,6 km/h (1 Bft) N 360 0 min 11,4 C 15,7 C 6,6 km/h (2 Bft)
15.05.2018 19:55 15,9 C 16,0 C 15,7 C 15,8 C 15,6 C 0,0 C 74 % 78 % 1012,8 hPa 0,0 l/m 2,4 km/h (1 Bft) W 270 0 min 11,3 C 15,6 C 2,3 km/h (1 Bft)
15.05.2018 20:00 15,7 C 16,0 C 15,7 C 15,6 C 15,4 C 0,0 C 74 % 77 % 1012,8 hPa 0,0 l/m 2,3 km/h (1 Bft) O-NO 67 0 min 11,1 C 15,4 C 2,4 km/h (1 Bft)
15.05.2018 20:05 15,6 C 16,0 C 15,6 C 15,5 C 15,3 C 0,0 C 73 % 77 % 1012,8 hPa 0,0 l/m 1,4 km/h (1 Bft) SW 225 0 min 10,8 C 15,3 C 2,9 km/h (1 Bft)
15.05.2018 20:11 15,5 C 16,0 C 15,3 C 15,4 C 15,2 C 0,0 C 72 % 76 % 1012,8 hPa 0,0 l/m 1,1 km/h (1 Bft) N 0 0 min 10,5 C 15,2 C 2,6 km/h (1 Bft)
15.05.2018 20:14 15,4 C 16,0 C 15,3 C 15,3 C 15,1 C 0,0 C 72 % 76 % 1013,0 hPa 0,0 l/m 1,3 km/h (1 Bft) O-NO 67 0 min 10,4 C 15,1 C 0,0 km/h (0 Bft)
15.05.2018 20:19 15,3 C 16,0 C 15,3 C 15,2 C 15,0 C 0,0 C 72 % 76 % 1013,0 hPa 0,0 l/m 1,4 km/h (1 Bft) SW 225 0 min 10,3 C 15,0 C 0,0 km/h (0 Bft)
15.05.2018 20:24 15,2 C 16,0 C 15,0 C 15,1 C 14,8 C 0,0 C 72 % 77 % 1013,0 hPa 0,0 l/m 1,6 km/h (1 Bft) NW 315 0 min 10,2 C 14,8 C 5,8 km/h (2 Bft)
15.05.2018 20:29 15,1 C 16,0 C 15,0 C 15,0 C 14,7 C 0,0 C 73 % 77 % 1013,0 hPa 0,0 l/m 1,9 km/h (1 Bft) NW 315 0 min 10,3 C 14,7 C 1,9 km/h (1 Bft)
15.05.2018 20:33 15,1 C 16,0 C 15,0 C 15,0 C 14,7 C 0,0 C 73 % 77 % 1013,0 hPa 0,0 l/m 1,9 km/h (1 Bft) NW 315 0 min 10,3 C 14,7 C 1,9 km/h (1 Bft)
15.05.2018 20:35 15,1 C 16,0 C 14,8 C 14,9 C 14,5 C 0,0 C 73 % 78 % 1012,9 hPa 0,0 l/m 2,4 km/h (1 Bft) W-SW 247 0 min 10,3 C 14,5 C 0,0 km/h (0 Bft)
15.05.2018 20:40 14,8 C 16,0 C 14,7 C 14,6 C 14,3 C 0,0 C 74 % 79 % 1012,9 hPa 0,0 l/m 2,1 km/h (1 Bft) N 360 0 min 10,2 C 14,3 C 3,5 km/h (1 Bft)
15.05.2018 20:45 14,7 C 16,0 C 14,5 C 14,5 C 14,1 C 0,0 C 75 % 79 % 1012,9 hPa 0,0 l/m 1,9 km/h (1 Bft) O-NO 67 0 min 10,3 C 14,1 C 0,0 km/h (0 Bft)
15.05.2018 20:50 14,7 C 15,9 C 14,4 C 14,4 C 13,9 C 0,0 C 75 % 79 % 1012,9 hPa 0,0 l/m 2,1 km/h (1 Bft) N-NW 337 0 min 10,3 C 13,9 C 3,1 km/h (1 Bft)
15.05.2018 20:55 14,5 C 16,0 C 14,3 C 14,3 C 13,8 C 0,0 C 75 % 80 % 1013,3 hPa 0,0 l/m 1,4 km/h (1 Bft) N-NO 22 0 min 10,1 C 13,8 C 3,9 km/h (1 Bft)
15.05.2018 21:00 14,4 C 16,0 C 14,1 C 14,2 C 13,7 C 0,0 C 76 % 81 % 1013,3 hPa 0,0 l/m 1,0 km/h (0 Bft) SW 225 0 min 10,2 C 13,7 C 3,2 km/h (1 Bft)
15.05.2018 21:05 14,3 C 16,0 C 14,0 C 14,0 C 13,5 C 0,0 C 77 % 81 % 1013,3 hPa 0,0 l/m 1,0 km/h (0 Bft) NO 45 0 min 10,3 C 13,5 C 1,6 km/h (1 Bft)
15.05.2018 21:10 14,2 C 16,0 C 14,0 C 13,9 C 13,3 C 0,0 C 77 % 82 % 1013,3 hPa 0,0 l/m 1,0 km/h (0 Bft) N-NW 337 0 min 10,2 C 13,3 C 0,0 km/h (0 Bft)
15.05.2018 21:15 14,1 C 16,0 C 13,9 C 13,8 C 13,3 C 0,0 C 78 % 82 % 1013,5 hPa 0,0 l/m 0,8 km/h (0 Bft) NO 45 0 min 10,3 C 13,3 C 0,0 km/h (0 Bft)
15.05.2018 21:20 14,0 C 16,1 C 13,7 C 13,7 C 13,1 C 0,0 C 78 % 82 % 1013,5 hPa 0,0 l/m 0,5 km/h (0 Bft) NW 315 0 min 10,2 C 13,1 C 0,0 km/h (0 Bft)
15.05.2018 21:25 13,9 C 16,1 C 13,7 C 13,6 C 13,1 C 0,0 C 79 % 82 % 1013,5 hPa 0,0 l/m 0,5 km/h (0 Bft) N-NW 337 0 min 10,3 C 13,1 C 0,0 km/h (0 Bft)
15.05.2018 21:30 13,8 C 16,1 C 13,6 C 13,5 C 12,9 C 0,0 C 79 % 83 % 1013,5 hPa 0,0 l/m 1,1 km/h (1 Bft) W-NW 292 0 min 10,2 C 12,9 C 8,2 km/h (2 Bft)
15.05.2018 21:35 13,7 C 16,1 C 13,5 C 13,4 C 12,9 C 0,0 C 79 % 83 % 1013,4 hPa 0,0 l/m 1,4 km/h (1 Bft) W-NW 292 0 min 10,1 C 12,9 C 0,0 km/h (0 Bft)
15.05.2018 21:40 13,6 C 16,1 C 13,5 C 13,3 C 12,8 C 0,0 C 80 % 84 % 1013,4 hPa 0,0 l/m 1,3 km/h (1 Bft) N-NW 337 0 min 10,2 C 12,8 C 4,7 km/h (1 Bft)
15.05.2018 21:45 13,6 C 16,1 C 13,4 C 13,3 C 12,8 C 0,0 C 80 % 84 % 1013,4 hPa 0,0 l/m 0,6 km/h (0 Bft) NW 315 0 min 10,2 C 12,8 C 0,0 km/h (0 Bft)
15.05.2018 21:50 13,5 C 16,1 C 13,3 C 13,2 C 12,7 C 0,0 C 80 % 85 % 1013,4 hPa 0,0 l/m 0,3 km/h (0 Bft) S 180 0 min 10,1 C 12,7 C 0,0 km/h (0 Bft)
15.05.2018 21:55 13,5 C 16,1 C 13,3 C 13,2 C 12,6 C 0,0 C 81 % 85 % 1012,9 hPa 0,0 l/m 0,0 km/h (0 Bft) N-NO 22 0 min 10,3 C 12,6 C 0,0 km/h (0 Bft)
15.05.2018 22:00 13,3 C 16,1 C 13,2 C 13,1 C 12,7 C 0,0 C 81 % 85 % 1012,9 hPa 0,0 l/m 0,3 km/h (0 Bft) N-NW 337 0 min 10,1 C 12,7 C 2,4 km/h (1 Bft)
15.05.2018 22:05 13,3 C 16,1 C 13,3 C 13,1 C 12,7 C 0,0 C 82 % 85 % 1012,9 hPa 0,0 l/m 1,0 km/h (0 Bft) NW 315 0 min 10,3 C 12,7 C 3,2 km/h (1 Bft)
15.05.2018 22:11 13,2 C 16,1 C 13,1 C 13,0 C 12,7 C 0,0 C 82 % 85 % 1012,9 hPa 0,0 l/m 1,9 km/h (1 Bft) N 0 0 min 10,2 C 12,7 C 5,1 km/h (1 Bft)
15.05.2018 22:31 12,9 C 16,1 C 12,8 C 12,7 C 12,3 C 0,0 C 82 % 86 % 1013,6 hPa 0,0 l/m 0,8 km/h (0 Bft) N-NO 22 0 min 9,9 C 12,3 C 0,0 km/h (0 Bft)
15.05.2018 22:40 12,8 C 16,2 C 12,7 C 12,5 C 11,8 C 0,0 C 83 % 86 % 1013,9 hPa 0,0 l/m 0,2 km/h (0 Bft) N-NW 337 0 min 10,0 C 11,8 C 0,0 km/h (0 Bft)
15.05.2018 22:45 12,7 C 16,2 C 12,4 C 12,3 C 11,6 C 0,0 C 83 % 86 % 1013,9 hPa 0,0 l/m 0,0 km/h (0 Bft) NW 315 0 min 9,9 C 11,6 C 0,0 km/h (0 Bft)
15.05.2018 22:50 12,5 C 16,1 C 12,3 C 12,1 C 11,3 C 0,0 C 83 % 87 % 1013,9 hPa 0,0 l/m 0,0 km/h (0 Bft) W 270 0 min 9,7 C 11,3 C 0,0 km/h (0 Bft)
15.05.2018 22:55 12,5 C 16,1 C 12,3 C 12,1 C 11,2 C 0,0 C 83 % 87 % 1013,4 hPa 0,0 l/m 0,2 km/h (0 Bft) NW 315 0 min 9,7 C 11,2 C 1,8 km/h (1 Bft)
15.05.2018 23:00 12,4 C 16,1 C 12,3 C 12,0 C 11,1 C 0,0 C 83 % 87 % 1013,4 hPa 0,0 l/m 0,3 km/h (0 Bft) N 360 0 min 9,6 C 11,1 C 0,0 km/h (0 Bft)
15.05.2018 23:05 12,2 C 16,1 C 12,2 C 11,8 C 11,0 C 0,0 C 83 % 87 % 1013,4 hPa 0,0 l/m 0,3 km/h (0 Bft) N 360 0 min 9,4 C 11,0 C 2,3 km/h (1 Bft)
15.05.2018 23:10 12,2 C 16,1 C 12,1 C 11,8 C 11,0 C 0,0 C 83 % 87 % 1013,4 hPa 0,0 l/m 0,2 km/h (0 Bft) N-NO 22 0 min 9,4 C 11,0 C 0,0 km/h (0 Bft)
15.05.2018 23:15 12,1 C 16,1 C 12,2 C 11,8 C 11,1 C 0,0 C 83 % 87 % 1013,6 hPa 0,0 l/m 0,3 km/h (0 Bft) SW 225 0 min 9,3 C 11,1 C 0,0 km/h (0 Bft)
15.05.2018 23:20 12,0 C 16,0 C 12,2 C 11,7 C 11,2 C 0,0 C 84 % 87 % 1013,6 hPa 0,0 l/m 0,5 km/h (0 Bft) W-SW 247 0 min 9,4 C 11,2 C 0,0 km/h (0 Bft)
15.05.2018 23:25 12,0 C 16,1 C 12,2 C 11,8 C 11,3 C 0,0 C 84 % 87 % 1013,6 hPa 0,0 l/m 0,6 km/h (0 Bft) O-SO 112 0 min 9,4 C 11,3 C 2,3 km/h (1 Bft)
15.05.2018 23:30 12,0 C 16,1 C 12,2 C 11,8 C 11,5 C 0,0 C 84 % 88 % 1013,6 hPa 0,0 l/m 0,5 km/h (0 Bft) NW 315 0 min 9,4 C 11,5 C 0,0 km/h (0 Bft)
15.05.2018 23:35 11,9 C 16,1 C 12,3 C 11,8 C 11,5 C 0,0 C 84 % 88 % 1013,4 hPa 0,0 l/m 0,5 km/h (0 Bft) W 270 0 min 9,3 C 11,5 C 2,9 km/h (1 Bft)
15.05.2018 23:40 11,8 C 16,1 C 12,3 C 11,7 C 11,5 C 0,0 C 84 % 87 % 1013,4 hPa 0,0 l/m 0,8 km/h (0 Bft) NW 315 0 min 9,2 C 11,5 C 0,0 km/h (0 Bft)
15.05.2018 23:45 11,9 C 16,0 C 12,2 C 11,8 C 11,5 C 0,0 C 84 % 87 % 1013,4 hPa 0,0 l/m 1,1 km/h (1 Bft) W-NW 292 0 min 9,3 C 11,5 C 2,7 km/h (1 Bft)
15.05.2018 23:50 11,8 C 16,0 C 12,3 C 11,7 C 11,6 C 0,0 C 84 % 88 % 1013,4 hPa 0,0 l/m 1,3 km/h (1 Bft) W-SW 247 0 min 9,2 C 11,6 C 2,6 km/h (1 Bft)
15.05.2018 23:55 11,7 C 16,0 C 12,3 C 11,7 C 11,7 C 0,0 C 84 % 88 % 1013,3 hPa 0,0 l/m 1,6 km/h (1 Bft) NW 315 0 min 9,1 C 11,7 C 2,4 km/h (1 Bft)
_ Min-Zeit 06:31 11:25 05:45 05:50 05:40 00:00 15:05 15:05 19:35 - 01:30 - - - 05:50 05:40 01:10
Minimum _ 6,7 C 15,3 C 7,3 C 6,4 C 5,5 C 0,0 C 50 % 49 % 1012,8 hPa - 0,0 km/h (0 Bft) - - - 4,1 C 5,5 C 0,0 km/h (0 Bft)
_ Max-Zeit 15:00 00:00 15:00 15:00 15:00 08:11 07:15 23:30 05:55 17:05 11:15 - - 08:31 17:20 15:00 10:55
Maximum _ 20,8 C 16,9 C 22,0 C 27,5 C 27,5 C 7,1 C 86 % 88 % 1016,3 hPa 0,7 l/m 5,3 km/h
O-NO (1 Bft)
- - 20 min 12,6 C 27,5 C 13,0 km/h
O-NO (3 Bft)
Durchschnitt _ 13,9 C 16,0 C 14,3 C 15,5 C 15,2 C 1,8 C 71 % 74 % 1014,6 hPa #0,7 l/m 1,4 km/h (1 Bft) O-NO - #6:37 h 8,7 C 15,2 C 2,0 km/h (1 Bft)
2018 www.wetterstation-wechselburg.de